When you browse on this site, cookies collect data to enhance your experience and personalize the content and advertising you see.
Visit our Privacy Policy to learn more. By continuing to use the site, you agree to this use of cookies and data.
  • In Czech Republic
  • List of Countries
  • For 7 days
  • Water Temperature
  • Weather Map
  • Weather Widgets
  • user-avatar
    Login

    Hourly Weather Berat

    Today, 26 August, Monday

    Time Temperature Precipitation Wind Pressure Humidity
    00:00 +26°C° 0 mm 1 mps 745 mmHg 57%
    01:00 +25°C° 0 mm 1 mps 745 mmHg 57%
    02:00 +25°C° 0 mm 2 mps 745 mmHg 55%
    03:00 +25°C° 0 mm 2 mps 745 mmHg 53%
    04:00 +25°C° 0 mm 2 mps 745 mmHg 51%
    05:00 +26°C° 0 mm 2 mps 745 mmHg 46%
    06:00 +28°C° 0 mm 2 mps 745 mmHg 41%
    07:00 +29°C° 0 mm 2 mps 745 mmHg 36%
    08:00 +32°C° 0 mm 2 mps 745 mmHg 31%
    09:00 +35°C° 0 mm 2 mps 746 mmHg 27%
    10:00 +38°C° 0 mm 2 mps 746 mmHg 23%
    11:00 +38°C° 0 mm 3 mps 746 mmHg 23%
    12:00 +38°C° 0 mm 3 mps 745 mmHg 24%
    13:00 +38°C° 0 mm 4 mps 745 mmHg 24%
    14:00 +36°C° 0 mm 3 mps 745 mmHg 28%
    15:00 +35°C° 0 mm 3 mps 745 mmHg 32%
    16:00 +34°C° 0 mm 2 mps 744 mmHg 35%
    17:00 +32°C° 0 mm 2 mps 744 mmHg 39%
    18:00 +30°C° 0 mm 1 mps 745 mmHg 43%
    19:00 +29°C° 0 mm 1 mps 745 mmHg 47%
    20:00 +28°C° 0 mm 1 mps 745 mmHg 47%
    21:00 +28°C° 0 mm 1 mps 745 mmHg 48%
    22:00 +27°C° 0 mm 2 mps 745 mmHg 48%
    23:00 +27°C° 0 mm 2 mps 745 mmHg 47%

    Tomorrow, 27 August, Tuesday

    Time Temperature Precipitation Wind Pressure Humidity
    00:00 +27°C° 0 mm 2 mps 745 mmHg 46%
    01:00 +26°C° 0 mm 2 mps 745 mmHg 45%
    02:00 +26°C° 0 mm 2 mps 745 mmHg 44%
    03:00 +26°C° 0 mm 2 mps 745 mmHg 44%
    04:00 +25°C° 0 mm 2 mps 745 mmHg 43%
    05:00 +27°C° 0 mm 2 mps 745 mmHg 40%
    06:00 +28°C° 0 mm 2 mps 745 mmHg 36%
    07:00 +30°C° 0 mm 2 mps 746 mmHg 33%
    08:00 +32°C° 0 mm 1 mps 746 mmHg 30%
    09:00 +34°C° 0 mm 1 mps 746 mmHg 26%
    10:00 +36°C° 0 mm 1 mps 746 mmHg 23%
    11:00 +37°C° 0 mm 2 mps 746 mmHg 24%
    12:00 +37°C° 0 mm 2 mps 746 mmHg 24%
    13:00 +36°C° 0 mm 3 mps 745 mmHg 25%
    14:00 +36°C° 0 mm 3 mps 745 mmHg 27%
    15:00 +35°C° 0 mm 3 mps 745 mmHg 29%
    16:00 +35°C° 0 mm 3 mps 745 mmHg 30%
    17:00 +32°C° 0 mm 2 mps 746 mmHg 36%
    18:00 +30°C° 0 mm 2 mps 746 mmHg 42%
    19:00 +28°C° 0 mm 1 mps 746 mmHg 49%
    20:00 +27°C° 0 mm 1 mps 746 mmHg 50%
    21:00 +27°C° 0 mm 1 mps 746 mmHg 52%
    22:00 +26°C° 0 mm 1 mps 746 mmHg 54%
    23:00 +26°C° 0 mm 2 mps 746 mmHg 54%

    Day after tomorrow, 28 August, Wednesday

    Time Temperature Precipitation Wind Pressure Humidity
    00:00 +25°C° 0 mm 2 mps 746 mmHg 54%
    01:00 +25°C° 0 mm 2 mps 745 mmHg 54%
    02:00 +25°C° 0 mm 2 mps 745 mmHg 54%
    03:00 +25°C° 0 mm 2 mps 745 mmHg 54%
    04:00 +24°C° 0 mm 2 mps 745 mmHg 54%
    05:00 +26°C° 0 mm 1 mps 745 mmHg 50%
    06:00 +28°C° 0 mm 1 mps 745 mmHg 45%
    07:00 +29°C° 0 mm 1 mps 746 mmHg 41%
    08:00 +31°C° 0 mm 1 mps 745 mmHg 36%
    09:00 +33°C° 0 mm 1 mps 745 mmHg 30%
    10:00 +36°C° 0 mm 1 mps 745 mmHg 25%
    11:00 +37°C° 0 mm 2 mps 745 mmHg 26%
    12:00 +36°C° 0 mm 3 mps 745 mmHg 26%
    13:00 +36°C° 0 mm 4 mps 745 mmHg 27%
    14:00 +35°C° 0 mm 4 mps 745 mmHg 30%
    15:00 +34°C° 0 mm 3 mps 744 mmHg 33%
    16:00 +33°C° 0 mm 3 mps 744 mmHg 36%
    17:00 +30°C° 0 mm 2 mps 744 mmHg 42%
    18:00 +29°C° 0 mm 1 mps 744 mmHg 47%
    19:00 +27°C° 0 mm 1 mps 744 mmHg 53%
    20:00 +27°C° 0 mm 1 mps 744 mmHg 53%
    21:00 +26°C° 0 mm 1 mps 744 mmHg 53%
    22:00 +26°C° 0 mm 1 mps 745 mmHg 53%
    23:00 +26°C° 0 mm 1 mps 744 mmHg 53%

    29 August, Thursday

    Time Temperature Precipitation Wind Pressure Humidity
    00:00 +25°C° 0 mm 1 mps 744 mmHg 54%
    01:00 +25°C° 0 mm 1 mps 744 mmHg 54%
    02:00 +25°C° 0 mm 1 mps 744 mmHg 54%
    03:00 +24°C° 0 mm 1 mps 744 mmHg 55%
    04:00 +24°C° 0 mm 1 mps 744 mmHg 55%
    05:00 +26°C° 0 mm 1 mps 744 mmHg 51%
    06:00 +27°C° 0 mm 1 mps 744 mmHg 46%
    07:00 +29°C° 0 mm 1 mps 744 mmHg 41%
    08:00 +31°C° 0 mm 1 mps 744 mmHg 36%
    09:00 +33°C° 0 mm 1 mps 744 mmHg 31%
    10:00 +36°C° 0 mm 2 mps 744 mmHg 26%
    11:00 +36°C° 0 mm 3 mps 744 mmHg 26%
    12:00 +36°C° 0 mm 4 mps 744 mmHg 27%
    13:00 +36°C° 0 mm 5 mps 744 mmHg 27%
    14:00 +36°C° 0 mm 4 mps 743 mmHg 29%
    15:00 +35°C° 0 mm 4 mps 743 mmHg 32%
    16:00 +34°C° 0 mm 4 mps 743 mmHg 34%
    17:00 +31°C° 0 mm 3 mps 743 mmHg 41%
    18:00 +29°C° 0 mm 2 mps 743 mmHg 48%
    19:00 +27°C° 0 mm 1 mps 743 mmHg 56%
    20:00 +26°C° 0 mm 1 mps 743 mmHg 58%
    21:00 +24°C° 0 mm 0 mps 743 mmHg 60%
    22:00 +23°C° 0 mm 0 mps 744 mmHg 61%
    23:00 +23°C° 0 mm 0 mps 743 mmHg 61%

    30 August, Friday

    Time Temperature Precipitation Wind Pressure Humidity
    00:00 +22°C° 0 mm 0 mps 743 mmHg 61%
    01:00 +24°C° 0 mm 1 mps 743 mmHg 60%
    02:00 +24°C° 0 mm 1 mps 743 mmHg 60%
    03:00 +23°C° 0 mm 1 mps 743 mmHg 59%
    04:00 +23°C° 0 mm 1 mps 743 mmHg 59%
    05:00 +25°C° 0 mm 1 mps 744 mmHg 53%
    06:00 +26°C° 0 mm 1 mps 744 mmHg 47%
    07:00 +28°C° 0 mm 1 mps 744 mmHg 40%
    08:00 +30°C° 0 mm 1 mps 744 mmHg 35%
    09:00 +33°C° 0 mm 1 mps 745 mmHg 30%
    10:00 +36°C° 0 mm 2 mps 745 mmHg 24%
    11:00 +36°C° 0 mm 3 mps 744 mmHg 25%
    12:00 +37°C° 0 mm 4 mps 744 mmHg 26%
    13:00 +37°C° 0 mm 5 mps 744 mmHg 26%
    14:00 +36°C° 0 mm 4 mps 744 mmHg 30%
    15:00 +35°C° 0 mm 4 mps 743 mmHg 33%
    16:00 +34°C° 0 mm 4 mps 743 mmHg 37%
    17:00 +31°C° 0 mm 3 mps 743 mmHg 45%
    18:00 +29°C° 0 mm 2 mps 743 mmHg 53%
    19:00 +26°C° 0 mm 1 mps 743 mmHg 61%
    20:00 +26°C° 0 mm 1 mps 743 mmHg 61%
    21:00 +25°C° 0 mm 1 mps 744 mmHg 60%
    22:00 +25°C° 0 mm 1 mps 744 mmHg 60%
    23:00 +25°C° 0 mm 1 mps 744 mmHg 57%

    31 August, Saturday

    Time Temperature Precipitation Wind Pressure Humidity
    00:00 +25°C° 0 mm 1 mps 744 mmHg 55%
    01:00 +24°C° 0 mm 1 mps 744 mmHg 52%
    02:00 +24°C° 0 mm 2 mps 744 mmHg 52%
    03:00 +24°C° 0 mm 2 mps 744 mmHg 51%
    04:00 +23°C° 0 mm 2 mps 744 mmHg 51%
    05:00 +25°C° 0 mm 2 mps 744 mmHg 47%
    06:00 +26°C° 0 mm 2 mps 744 mmHg 42%
    07:00 +28°C° 0 mm 2 mps 744 mmHg 38%
    08:00 +30°C° 0 mm 2 mps 744 mmHg 33%
    09:00 +32°C° 0 mm 2 mps 745 mmHg 28%
    10:00 +35°C° 0 mm 2 mps 745 mmHg 23%
    11:00 +36°C° 0 mm 2 mps 745 mmHg 23%
    12:00 +37°C° 0 mm 3 mps 744 mmHg 23%
    13:00 +37°C° 0 mm 4 mps 744 mmHg 23%
    14:00 +36°C° 0 mm 4 mps 744 mmHg 27%
    15:00 +35°C° 0 mm 4 mps 744 mmHg 31%
    16:00 +34°C° 0 mm 4 mps 743 mmHg 35%
    17:00 +30°C° 0 mm 3 mps 743 mmHg 44%
    18:00 +28°C° 0 mm 2 mps 744 mmHg 52%
    19:00 +24°C° 0 mm 0 mps 744 mmHg 61%
    20:00 +25°C° 0 mm 1 mps 744 mmHg 59%
    21:00 +25°C° 0 mm 1 mps 744 mmHg 58%
    22:00 +25°C° 0 mm 1 mps 745 mmHg 57%
    23:00 +25°C° 0 mm 1 mps 745 mmHg 55%
    Show more